Regional Weather Roundup
Issued by NWS Little Rock, AR

Home | Current Version | Previous Version | Graphics & Text | Print | Product List | Glossary On
Versions: 1 2 3 4 5 6 7 8 9 10 11 12 13 14 15 16 17 18 19 20 21 22 23 24 25 26 27 28 29 30 31 32
000
ASUS44 KLZK 211905
RWRLZK

WEATHER ROUNDUP FOR ARKANSAS
NATIONAL WEATHER SERVICE LITTLE ROCK AR
200 PM CDT SUN MAY 21 2017

NOTE: "FAIR" INDICATES FEW OR NO CLOUDS BELOW 12,000 FEET WITH NO
SIGNIFICANT WEATHER AND/OR OBSTRUCTIONS TO VISIBILITY.

ARZ001-003-010-029-212000-
NORTHWEST ARKANSAS

CITY           SKY/WX    TMP DP  RH WIND       PRES   REMARKS
FAYETTEVILLE   SUNNY     68  45  43 VRB6      30.17F
FORT SMITH     SUNNY     75  43  31 N7        30.16F
HARRISON       SUNNY     67  42  40 NW12G20   30.17F
BENTONVILLE    SUNNY     68  45  42 N9        30.18F
ROGERS         SUNNY     67  44  43 N8        30.18F
SILOAM SPGS    SUNNY     66  45  45 N9        30.18F
HIGHFILL       SUNNY     71  43  36 N13       30.18F
SPRINGDALE     SUNNY     68  43  40 NW13G23   30.19F
$$

ARZ004-005-016-212000-
NORTH CENTRAL ARKANSAS

CITY           SKY/WX    TMP DP  RH WIND       PRES   REMARKS
BATESVILLE     SUNNY     73  54  49 W8        30.13S
FLIPPIN        SUNNY     70  43  37 NW8G17    30.14R
MTN HOME       SUNNY     69  45  41 VRB3      30.15S
$$

ARZ040-041-212000-
WEST CENTRAL ARKANSAS

CITY           SKY/WX    TMP DP  RH WIND       PRES   REMARKS
MENA           SUNNY     77  48  36 N8        30.16F
MOUNT IDA      SUNNY     77  41  27 VRB6      30.12F
$$

ARZ009-017-025-026-028-212000-
NORTHEAST ARKANSAS

CITY           SKY/WX    TMP DP  RH WIND       PRES   REMARKS
JONESBORO      SUNNY     77  54  44 W12G21    30.09F
NEWPORT        SUNNY     74  54  49 VRB7      30.12R
WALNUT RIDGE   SUNNY     73  54  49 CALM      30.09F
BLYTHEVILLE    SUNNY     77  57  50 VRB5      30.07F
$$

ARZ022-023-033-042-044-212000-
CENTRAL ARKANSAS

CITY           SKY/WX    TMP DP  RH WIND       PRES   REMARKS
LITTLE ROCK    CLOUDY    75  51  43 W12       30.12F
N LITTLE ROCK    N/A     73  56  53 NW7       30.12F
JACKSONVILLE   MOSUNNY   76  56  49 W9        30.11F
CONWAY           N/A     75  52  43 VRB5G14   30.12F
SEARCY         SUNNY     76  56  49 NW9       30.12F
HOT SPRINGS    SUNNY     79  49  34 VRB7      30.13F
RUSSELLVILLE   SUNNY     77  44  30 NW10G16   30.13F
CLINTON        FAIR      73  46  38 NW14G20   30.15S
$$

ARZ036-212000-
EAST ARKANSAS

CITY           SKY/WX    TMP DP  RH WIND       PRES   REMARKS
WEST MEMPHIS   SUNNY     76  54  46 NW9       30.08S
$$

ARZ050-053-066-070-073-212000-
SOUTHWEST ARKANSAS

CITY           SKY/WX    TMP DP  RH WIND       PRES   REMARKS
ARKADELPHIA    FAIR      77  54  44 N10       30.13F
CAMDEN         CLOUDY    64  57  77 CALM      30.13S
TEXARKANA      MOSUNNY   73  57  57 NE5       30.13F
DE QUEEN       SUNNY     78  48  34 N13G20    30.11F
$$

ARZ056-057-069-212000-
SOUTHEAST ARKANSAS

CITY           SKY/WX    TMP DP  RH WIND       PRES   REMARKS
PINE BLUFF     CLOUDY    73  56  54 SW7       30.13F
STUTTGART      MOSUNNY   77  48  36 W12       30.12F
MONTICELLO     TSTM      65  63  93 CALM      30.14F FOG

$$






USA.gov is the U.S. government's official web portal to all federal, state and local government web resources and services.